• In Hungary
  • List of Countries
  • For 7 days
  • Water Temperature
  • Satellite Maps
  • Weather Map
  • News
  • Weather Widgets
  • user-avatar
    Login

    Hourly Weather Sulaszewo

    Today, 24 October, Wednesday

    Time Temperature Precipitation Wind Pressure Humidity
    00:00 +7°C° 0.3 mm 9 mps 741 mmHg 73%
    01:00 +6°C° 0.3 mm 9 mps 741 mmHg 72%
    02:00 +6°C° 0.1 mm 8 mps 741 mmHg 71%
    03:00 +5°C° 0.1 mm 8 mps 742 mmHg 70%
    04:00 +5°C° 0.1 mm 8 mps 742 mmHg 69%
    05:00 +4°C° 0 mm 7 mps 743 mmHg 67%
    06:00 +4°C° 0 mm 7 mps 744 mmHg 65%
    07:00 +3°C° 0 mm 6 mps 744 mmHg 62%
    08:00 +4°C° 0 mm 7 mps 745 mmHg 57%
    09:00 +5°C° 0 mm 9 mps 746 mmHg 51%
    10:00 +6°C° 0 mm 10 mps 746 mmHg 45%
    11:00 +7°C° 0 mm 10 mps 747 mmHg 44%
    12:00 +7°C° 0 mm 10 mps 748 mmHg 43%
    13:00 +7°C° 0 mm 10 mps 748 mmHg 41%
    14:00 +7°C° 0 mm 8 mps 749 mmHg 44%
    15:00 +6°C° 0 mm 7 mps 749 mmHg 46%
    16:00 +7°C° 0 mm 6 mps 749 mmHg 49%
    17:00 +5°C° 0 mm 6 mps 750 mmHg 52%
    18:00 +6°C° 0 mm 5 mps 750 mmHg 55%
    19:00 +5°C° 0 mm 5 mps 751 mmHg 58%
    20:00 +5°C° 0 mm 5 mps 751 mmHg 61%
    21:00 +4°C° 0 mm 4 mps 751 mmHg 65%
    22:00 +4°C° 0 mm 4 mps 752 mmHg 68%
    23:00 +4°C° 0 mm 4 mps 751 mmHg 71%

    Tomorrow, 25 October, Thursday

    Time Temperature Precipitation Wind Pressure Humidity
    00:00 +4°C° 0 mm 4 mps 751 mmHg 73%
    01:00 +4°C° 0 mm 4 mps 751 mmHg 76%
    02:00 +4°C° 0.2 mm 4 mps 750 mmHg 79%
    03:00 +3°C° 0.2 mm 5 mps 749 mmHg 82%
    04:00 +3°C° 0.2 mm 5 mps 748 mmHg 84%
    05:00 +6°C° 0.9 mm 5 mps 747 mmHg 87%
    06:00 +7°C° 0.9 mm 6 mps 747 mmHg 89%
    07:00 +8°C° 0.9 mm 7 mps 746 mmHg 91%
    08:00 +9°C° 0.4 mm 7 mps 745 mmHg 89%
    09:00 +9°C° 0.4 mm 8 mps 745 mmHg 86%
    10:00 +10°C° 0.4 mm 9 mps 745 mmHg 84%
    11:00 +10°C° 0.2 mm 9 mps 745 mmHg 82%
    12:00 +10°C° 0.2 mm 9 mps 745 mmHg 79%
    13:00 +10°C° 0.2 mm 9 mps 745 mmHg 77%
    14:00 +10°C° 0.1 mm 9 mps 745 mmHg 75%
    15:00 +9°C° 0.1 mm 8 mps 745 mmHg 72%
    16:00 +9°C° 0.1 mm 8 mps 745 mmHg 70%
    17:00 +8°C° 0 mm 7 mps 746 mmHg 72%
    18:00 +8°C° 0 mm 7 mps 746 mmHg 74%
    19:00 +7°C° 0 mm 6 mps 747 mmHg 76%
    20:00 +7°C° 0 mm 6 mps 747 mmHg 77%
    21:00 +7°C° 0 mm 6 mps 747 mmHg 79%
    22:00 +7°C° 0 mm 5 mps 747 mmHg 80%
    23:00 +6°C° 0 mm 5 mps 747 mmHg 81%

    Day after tomorrow, 26 October, Friday

    Time Temperature Precipitation Wind Pressure Humidity
    00:00 +6°C° 0 mm 5 mps 747 mmHg 82%
    01:00 +6°C° 0 mm 5 mps 747 mmHg 83%
    02:00 +6°C° 0 mm 5 mps 747 mmHg 83%
    03:00 +6°C° 0 mm 5 mps 747 mmHg 83%
    04:00 +6°C° 0 mm 5 mps 747 mmHg 83%
    05:00 +6°C° 0 mm 5 mps 747 mmHg 84%
    06:00 +5°C° 0 mm 4 mps 746 mmHg 85%
    07:00 +5°C° 0 mm 4 mps 746 mmHg 86%
    08:00 +6°C° 0 mm 4 mps 746 mmHg 82%
    09:00 +7°C° 0 mm 4 mps 746 mmHg 79%
    10:00 +8°C° 0 mm 4 mps 746 mmHg 75%
    11:00 +9°C° 0.3 mm 5 mps 745 mmHg 78%
    12:00 +9°C° 0.3 mm 6 mps 744 mmHg 81%
    13:00 +9°C° 0.3 mm 7 mps 744 mmHg 84%
    14:00 +9°C° 0.1 mm 6 mps 743 mmHg 83%
    15:00 +10°C° 0.1 mm 6 mps 742 mmHg 82%
    16:00 +10°C° 0.1 mm 6 mps 742 mmHg 81%
    17:00 +9°C° 0.1 mm 6 mps 741 mmHg 80%
    18:00 +9°C° 0.1 mm 7 mps 741 mmHg 78%
    19:00 +9°C° 0.1 mm 7 mps 741 mmHg 77%
    20:00 +8°C° 0.1 mm 7 mps 741 mmHg 77%
    21:00 +7°C° 0.1 mm 8 mps 740 mmHg 78%
    22:00 +7°C° 0.1 mm 8 mps 740 mmHg 78%
    23:00 +6°C° 0.1 mm 8 mps 740 mmHg 77%

    27 October, Saturday

    Time Temperature Precipitation Wind Pressure Humidity
    00:00 +5°C° 0.1 mm 8 mps 741 mmHg 76%
    01:00 +4°C° 0.1 mm 8 mps 741 mmHg 75%
    02:00 +5°C° 0.1 mm 8 mps 741 mmHg 75%
    03:00 +5°C° 0.1 mm 8 mps 742 mmHg 75%
    04:00 +5°C° 0.1 mm 8 mps 742 mmHg 75%
    05:00 +4°C° 0 mm 7 mps 743 mmHg 77%
    06:00 +4°C° 0 mm 7 mps 744 mmHg 79%
    07:00 +3°C° 0 mm 7 mps 744 mmHg 81%
    08:00 +4°C° 0 mm 6 mps 745 mmHg 78%
    09:00 +4°C° 0 mm 6 mps 746 mmHg 75%
    10:00 +5°C° 0 mm 6 mps 746 mmHg 72%
    11:00 +5°C° 0 mm 6 mps 747 mmHg 69%
    12:00 +6°C° 0 mm 5 mps 747 mmHg 65%
    13:00 +7°C° 0 mm 5 mps 748 mmHg 62%
    14:00 +7°C° 0 mm 4 mps 748 mmHg 62%
    15:00 +7°C° 0 mm 3 mps 749 mmHg 63%
    16:00 +7°C° 0 mm 2 mps 749 mmHg 63%
    17:00 +6°C° 0 mm 2 mps 750 mmHg 66%
    18:00 +6°C° 0 mm 2 mps 750 mmHg 68%
    19:00 +6°C° 0 mm 1 mps 751 mmHg 70%
    20:00 +6°C° 0 mm 1 mps 751 mmHg 72%
    21:00 +4°C° 0 mm 2 mps 752 mmHg 74%
    22:00 +4°C° 0 mm 2 mps 752 mmHg 75%
    23:00 +4°C° 0 mm 2 mps 752 mmHg 76%

    28 October, Sunday

    Time Temperature Precipitation Wind Pressure Humidity
    00:00 +4°C° 0 mm 1 mps 752 mmHg 77%
    01:00 +4°C° 0 mm 1 mps 753 mmHg 79%
    02:00 +4°C° 0 mm 1 mps 753 mmHg 79%
    03:00 +3°C° 0 mm 2 mps 753 mmHg 79%
    04:00 +2°C° 0 mm 2 mps 753 mmHg 80%
    05:00 +2°C° 0 mm 2 mps 754 mmHg 80%
    06:00 +2°C° 0 mm 2 mps 754 mmHg 79%
    07:00 +2°C° 0 mm 2 mps 754 mmHg 79%
    08:00 +3°C° 0 mm 3 mps 755 mmHg 75%
    09:00 +4°C° 0 mm 3 mps 755 mmHg 71%
    10:00 +5°C° 0 mm 4 mps 755 mmHg 67%
    11:00 +5°C° 0 mm 4 mps 755 mmHg 65%
    12:00 +6°C° 0 mm 4 mps 755 mmHg 63%
    13:00 +6°C° 0 mm 5 mps 755 mmHg 61%
    14:00 +6°C° 0 mm 5 mps 755 mmHg 62%
    15:00 +6°C° 0 mm 4 mps 755 mmHg 63%
    16:00 +5°C° 0 mm 4 mps 755 mmHg 64%
    17:00 +5°C° 0.1 mm 5 mps 755 mmHg 65%
    18:00 +5°C° 0.1 mm 5 mps 755 mmHg 66%
    19:00 +5°C° 0.1 mm 5 mps 755 mmHg 67%
    20:00 +4°C° 0.2 mm 6 mps 755 mmHg 68%
    21:00 +3°C° 0.2 mm 6 mps 754 mmHg 68%
    22:00 +3°C° 0.2 mm 6 mps 754 mmHg 68%
    23:00 +3°C° 0.3 mm 7 mps 754 mmHg 69%

    29 October, Monday

    Time Temperature Precipitation Wind Pressure Humidity
    00:00 +3°C° 0.3 mm 7 mps 753 mmHg 70%
    01:00 +2°C° 0.3 mm 8 mps 753 mmHg 71%
    02:00 +2°C° 1 mm 8 mps 752 mmHg 72%
    03:00 +1°C° 1 mm 9 mps 752 mmHg 73%
    04:00 +1°C° 1 mm 10 mps 751 mmHg 74%
    05:00 +1°C° 1 mm 10 mps 750 mmHg 75%
    06:00 +1°C° 1 mm 10 mps 750 mmHg 76%
    07:00 +1°C° 1 mm 10 mps 749 mmHg 77%
    08:00 +1°C° 1.3 mm 10 mps 749 mmHg 78%
    09:00 +1°C° 1.3 mm 10 mps 749 mmHg 80%
    10:00 +1°C° 1.3 mm 10 mps 748 mmHg 81%
    11:00 +1°C° 0.4 mm 10 mps 748 mmHg 82%
    12:00 +1°C° 0.4 mm 10 mps 747 mmHg 83%
    13:00 +1°C° 0.4 mm 10 mps 747 mmHg 84%
    14:00 +1°C° 0.4 mm 9 mps 746 mmHg 84%
    15:00 0°C° 0.4 mm 9 mps 746 mmHg 85%
    16:00 0°C° 0.4 mm 9 mps 746 mmHg 86%
    17:00 0°C° 0.1 mm 9 mps 745 mmHg 86%
    18:00 0°C° 0.1 mm 8 mps 745 mmHg 87%
    19:00 +1°C° 0.1 mm 8 mps 745 mmHg 87%
    20:00 +1°C° 0.1 mm 8 mps 745 mmHg 88%
    21:00 +2°C° 0.1 mm 7 mps 745 mmHg 89%
    22:00 +2°C° 0.1 mm 7 mps 745 mmHg 89%
    23:00 +2°C° 0.1 mm 7 mps 744 mmHg 90%

    30 October, Tuesday

    Time Temperature Precipitation Wind Pressure Humidity
    00:00 +2°C° 0.1 mm 7 mps 744 mmHg 91%
    01:00 +3°C° 0.1 mm 7 mps 744 mmHg 92%
    02:00 +3°C° 0.1 mm 7 mps 743 mmHg 92%
    03:00 +4°C° 0.1 mm 7 mps 743 mmHg 93%
    04:00 +4°C° 0.1 mm 7 mps 743 mmHg 93%
    05:00 +5°C° 0.6 mm 7 mps 742 mmHg 94%
    06:00 +6°C° 0.6 mm 7 mps 742 mmHg 94%
    07:00 +7°C° 0.6 mm 8 mps 741 mmHg 94%
    08:00 +9°C° 0.2 mm 8 mps 741 mmHg 91%
    09:00 +10°C° 0.2 mm 7 mps 741 mmHg 89%
    10:00 +11°C° 0.2 mm 7 mps 741 mmHg 86%
    11:00 +12°C° 0.2 mm 7 mps 741 mmHg 84%
    12:00 +13°C° 0.2 mm 6 mps 742 mmHg 81%
    13:00 +14°C° 0.2 mm 6 mps 742 mmHg 79%
    14:00 +13°C° 0 mm 5 mps 743 mmHg 81%
    15:00 +12°C° 0 mm 4 mps 743 mmHg 83%
    16:00 +11°C° 0 mm 3 mps 744 mmHg 84%
    17:00 +10°C° 0 mm 2 mps 744 mmHg 84%
    18:00 +9°C° 0 mm 2 mps 745 mmHg 84%
    19:00 +8°C° 0 mm 2 mps 745 mmHg 84%
    20:00 +8°C° 0.1 mm 2 mps 745 mmHg 84%
    21:00 +8°C° 0.1 mm 2 mps 746 mmHg 83%
    22:00 +7°C° 0.1 mm 2 mps 746 mmHg 82%
    23:00 +7°C° 0 mm 2 mps 746 mmHg 81%
    Show more